Weather in Khariyaga

Russia / Nenets Autonomous Okrug     67°12′51″N   56°46′28″E
temp.,
°C
wind,
m/s
gust,
m/s
humid.,
%
clouds,
%
prec.,
mm/h
press.,
hPa
HPBL,
m
1 march, mon
mon100:00−16ssw6119595 0.1 1008264
03:00−15ssw7129497 0.1 1006279
06:00−14ssw81394100 0.1 1002284
09:00−12ssw101693100 0.4 998457
12:00−10ssw101693100 0.9 994651
15:00−9ssw111793100 2.1 990718
18:00−7ssw121994100 1.9 986721
21:00−2sw101597100 4.9 985461
2 march, tue
tue200:00−1wsw81295100 1.7 985508
03:00−3sw71196100 2.9 985405
06:00−5ssw71095100 1.2 986333
09:00−6ssw71094100 1.4 986280
12:00−7ssw5994100 0.1 987274
15:00−7ssw589599 0.2 988243
18:00−9s469694 0.2 989124
21:00−10s459694 0.4 99098
3 march, wed
wed300:00−11s349695 0.2 98956
03:00−12s349691 0.3 99045
06:00−12sse239698 0.2 99028
09:00−11sse239698 0.3 990100
12:00−10se2295100 0.2 991128
15:00−11ese239699 0.4 99146
18:00−12ese2296100 0.2 99131
21:00−13e2396100 0.4 99230
4 march, thu
thu400:00−15ene339697 0.3 99136
03:00−15ne339698 0.4 99260
06:00−16ne349799 0.2 99281
09:00−16ne469797 0.3 992163
12:00−16ne4695100 0.1 993253
15:00−17nne4796100 0.1 994222
18:00−19nne469899 0.1 994112
21:00−19nne479798 0.1 994177
5 march, fri
fri500:00−19nne479795 0.1 994176
03:00−20n479794 0.1 995142
06:00−21n489894 0.0 995137
09:00−19n589595 0.1 996302
12:00−18n589497 0.1 997339
15:00−19nnw489498 0.1 999275
18:00−20nw489699 0.1 1000193
21:00−21nw479699 0.1 1001153